Portsmouth, NH

3:15 PM EST on February 08, 2016 (GMT -0500)
Pease International Tradeport

Weather History for KPSM - August, 2014

Change the Weather History Date:

Thursday, August 14, 2014

  Actual Average Record
Temperature  
Mean Temperature 66 °F -  
Max Temperature 75 °F 79 °F 96 °F (2002)
Min Temperature 56 °F 60 °F 40 °F (1983)
Cooling Degree Days 1    
Growing Degree Days 16 (Base 50)    
Moisture  
Dew Point 55 °F    
Average Humidity 73    
Maximum Humidity 100    
Minimum Humidity 43    
Precipitation  
Precipitation 0.00 in - - ()
Sea Level Pressure  
Sea Level Pressure 29.73 in    
Wind  
Wind Speed 9 mph (West)    
Max Wind Speed 15 mph    
Max Gust Speed 21 mph    
Visibility 10 miles    
Events      
Averages and records for this station are not official NWS values.
T = Trace of Precipitation, MM = Missing Value Source: NWS Daily Summary

Daily Weather History Graph

Daily Weather History Graph

Search for Another Location

Airport or City:

Trip Planner

Search our weather history database for the weather conditions in past years. The results will help you decide how hot, cold, wet, or windy it might be!

Date:

Astronomy

Aug. 14, 2014 Rise Set
Actual Time 5:47 AM EDT 7:47 PM EDT
Civil Twilight 5:17 AM EDT 8:17 PM EDT
Nautical Twilight 4:39 AM EDT 8:55 PM EDT
Astronomical Twilight 3:57 AM EDT 9:36 PM EDT
Moon 9:59 PM EDT (8/14) 10:29 AM EDT (8/14)
Length of Visible Light 15h 00m
Length of Day
13h 59m
Waning Gibbous, 79% of the Moon is Illuminated
Aug 14
Waning Gibbous
Aug 17
Last Quarter
Aug 25
New
Sep 2
First Quarter
Sep 8
Full

Hourly Weather History & Observations

Time (EDT) Temp. Dew Point Humidity Pressure Visibility Wind Dir Wind Speed Gust Speed Precip Events Conditions
12:43 AM 62.6 °F 62.6 °F 100% 29.63 in 3.0 mi West 11.5 mph - N/A   Overcast
12:58 AM 63.3 °F 61.9 °F 95% 29.64 in 7.0 mi West 8.1 mph - N/A   Overcast
1:28 AM 62.6 °F 60.8 °F 94% 29.63 in 10.0 mi West 9.2 mph - N/A   Mostly Cloudy
1:43 AM 62.6 °F 60.8 °F 94% 29.63 in 10.0 mi West 8.1 mph - N/A   Scattered Clouds
1:58 AM 62.4 °F 60.4 °F 93% 29.64 in 10.0 mi West 8.1 mph - N/A   Partly Cloudy
2:58 AM 61.7 °F 59.4 °F 92% 29.65 in 10.0 mi West 11.5 mph - N/A   Partly Cloudy
3:58 AM 61.2 °F 59.2 °F 93% 29.65 in 10.0 mi West 6.9 mph - N/A   Partly Cloudy
4:58 AM 60.6 °F 58.6 °F 93% 29.66 in 10.0 mi WSW 6.9 mph - N/A   Clear
5:58 AM 60.4 °F 58.1 °F 92% 29.68 in 10.0 mi West 9.2 mph - N/A   Clear
6:58 AM 61.2 °F 58.3 °F 90% 29.70 in 10.0 mi WSW 8.1 mph - N/A   Partly Cloudy
7:58 AM 63.1 °F 57.7 °F 83% 29.72 in 10.0 mi WSW 11.5 mph - N/A   Partly Cloudy
8:58 AM 65.7 °F 55.9 °F 71% 29.73 in 10.0 mi West 10.4 mph 19.6 mph N/A   Partly Cloudy
9:58 AM 67.5 °F 54.3 °F 63% 29.74 in 10.0 mi West 11.5 mph 20.7 mph N/A   Scattered Clouds
10:58 AM 69.1 °F 55.8 °F 62% 29.76 in 10.0 mi West 9.2 mph - N/A   Mostly Cloudy
11:58 AM 71.1 °F 54.9 °F 56% 29.75 in 10.0 mi WSW 13.8 mph 20.7 mph N/A   Scattered Clouds
12:58 PM 73.0 °F 55.0 °F 53% 29.75 in 10.0 mi West 13.8 mph - N/A   Scattered Clouds
1:58 PM 73.6 °F 51.4 °F 46% 29.75 in 10.0 mi West 15.0 mph - N/A   Partly Cloudy
2:58 PM 75.0 °F 51.6 °F 44% 29.76 in 10.0 mi West 15.0 mph 19.6 mph N/A   Partly Cloudy
3:58 PM 73.6 °F 50.5 °F 44% 29.77 in 10.0 mi West 8.1 mph - N/A   Mostly Cloudy
4:58 PM 74.5 °F 50.9 °F 43% 29.77 in 10.0 mi West 10.4 mph - N/A   Scattered Clouds
5:58 PM 72.7 °F 49.5 °F 44% 29.78 in 10.0 mi West 11.5 mph - N/A   Partly Cloudy
6:58 PM 70.9 °F 49.1 °F 46% 29.80 in 10.0 mi West 10.4 mph - N/A   Partly Cloudy
7:58 PM 66.4 °F 48.7 °F 53% 29.82 in 10.0 mi West 5.8 mph - N/A   Partly Cloudy
8:58 PM 62.4 °F 53.6 °F 73% 29.84 in 10.0 mi WSW 3.5 mph - N/A   Clear
9:58 PM 59.4 °F 53.4 °F 81% 29.85 in 10.0 mi Calm Calm - N/A   Clear
10:58 PM 57.2 °F 52.7 °F 85% 29.86 in 10.0 mi SW 1.2 mph - N/A   Clear
11:58 PM 56.5 °F 53.4 °F 89% 29.87 in 10.0 mi West 3.5 mph - N/A   Clear